User: anonymous   Login
Location: Saint-Hippolyte
(43.6394°N, 4.7559°E)
Time: 02:52:36
(UTC+00:00)
Language:

Cosmos 2297 Rocket - Orbit

View from above orbital plane
View from above orbital plane
View from above satellite
View from above satellite

Ground track
Ground track

The orbit data is extracted from the following two-line orbital elements,

1 23405U 94077B   21018.85144667  .00000181  00000-0  11743-3 0  9993
2 23405  70.9838 337.5624 0001936 190.8442 169.2639 14.15232270350829
Epoch (UTC): 18 January 2021 20:26:04
Eccentricity: 0.0001936
inclination: 70.9838°
perigee height: 840 km
apogee height: 843 km
right ascension of ascending node: 337.5624°
argument of perigee: 190.8442°
revolutions per day: 14.15232270
mean anomaly at epoch: 169.2639°
orbit number at epoch: 35082

The dashed part of the orbit path shows where the satellite is in the earth's shadow,  

DLR